Regional Weather Roundup
Issued by NWS

Home | Current Version | Previous Version | Text Only | Print | Product List | Glossary On
Versions: 1 2 3 4 5 6 7 8 9 10 11 12 13 14 15 16 17 18 19 20 21 22 23 24 25 26 27 28 29 30 31 32 33 34 35 36 37 38 39 40 41 42 43 44 45 46 47 48 49 50
000
ASUS45 KREV 230310
RWRNV
NEVADA REGIONAL WEATHER ROUNDUP
NATIONAL WEATHER SERVICE RENO NV
800 PM PDT THU JUN 22 2017

NOTE: "FAIR" INDICATES FEW OR NO CLOUDS BELOW 12,000 FEET WITH NO
SIGNIFICANT WEATHER AND/OR OBSTRUCTIONS TO VISIBILITY.

NVZ001-003-004-230400-
WESTERN NEVADA

CITY           SKY/WX    TMP DP  RH WIND       PRES   REMARKS
RENO           PTCLDY    89  35  14 NE10      30.03R
CARSON CITY    FAIR      88  32  13 NE10      30.06R
MINDEN         FAIR      82  46  28 W7        30.05R
FALLON         PTCLDY    87  29  12 N8        29.99S
LOVELOCK       CLEAR     85  30  13 NE13      30.01R
HAWTHORNE      CLEAR     88  41  19 NW14      30.00R
$$

NVZ002-CAZ072-073-230400-
NORTHERN AND CENTRAL SIERRA

CITY           SKY/WX    TMP DP  RH WIND       PRES   REMARKS
S. LAKE TAHOE  CLEAR     71  44  37 CALM      30.18R
TRUCKEE        CLEAR     79  39  24 CALM      30.16R
SQUAW VLY 8000   N/A     63  48  59 W3          N/A
SUSANVILLE     CLEAR     86  41  20 CALM      30.04
MAMMOTH LAKES  MOCLDY    78  43  29 CALM      30.23R
BRIDGEPORT     FAIR      73  41  31 CALM      30.20R
$$

NVZ030-031-036-230400-
NORTHERN NEVADA

CITY           SKY/WX    TMP DP  RH WIND       PRES   REMARKS
ELKO           CLEAR     78  26  14 N12       30.10R
WINNEMUCCA     CLEAR     80  29  15 N13       30.08R
WENDOVER         N/A     82  23  11 N14       30.03R
$$

NVZ035-037-230400-
CENTRAL NEVADA

CITY           SKY/WX    TMP DP  RH WIND       PRES   REMARKS
ELY            CLEAR     79  26  14 NW9       30.14R
EUREKA           N/A     76  29  17 N13       30.15R
$$

NVZ013-014-230400-
SOUTH CENTRAL NEVADA

CITY           SKY/WX    TMP DP  RH WIND       PRES   REMARKS
TONOPAH        CLEAR     90  33  13 NW16      30.04R
$$

NVZ017-020-022-230400-
SOUTHERN NEVADA

CITY           SKY/WX    TMP DP  RH WIND       PRES   REMARKS
LAS VEGAS      PTCLDY   107  15   4 W15G23    29.69R
N. LAS VEGAS   CLEAR    107  23   5 W15       29.68R
NELLIS AFB     CLEAR    108  27   6 SW14      29.64R
HENDERSON      CLEAR    105  32   8 W14       29.74R
MERCURY        CLEAR    100  31   9 SW10      29.80S
$$



USA.gov is the U.S. government's official web portal to all federal, state and local government web resources and services.